Du Bois, PA

4:03 AM EDT on August 20, 2017 (GMT -0400)
Du Bois-Jefferson County

Weather History for KDUJ - October, 2011

Change the Weather History Date:

Monday, October 3, 2011

  Actual Average Record
Temperature  
Mean Temperature 48 °F 53 °F  
Max Temperature 55 °F 63 °F 80 °F (2005)
Min Temperature 41 °F 43 °F 26 °F (1974)
Degree Days  
Heating Degree Days 17 12  
Month to date heating degree days 35  
Since 1 July heating degree days 281  
Cooling Degree Days 0 0  
Month to date cooling degree days 0  
Year to date cooling degree days 360  
Moisture  
Dew Point 44 °F    
Average Humidity 89    
Maximum Humidity 100    
Minimum Humidity 64    
Precipitation  
Precipitation 0.11 in 0.10 in 3.20 in (1998)
Month to date precipitation 0.31  
Sea Level Pressure  
Sea Level Pressure 29.98 in    
Wind  
Wind Speed 3 mph (NW)    
Max Wind Speed 8 mph    
Max Gust Speed -    
Visibility 7 miles    
Events Rain    
T = Trace of Precipitation, MM = Missing Value Source: NWS Daily Summary

Daily Weather History Graph

Daily Weather History Graph

Search for Another Location

Airport or City:

Trip Planner

Search our weather history database for the weather conditions in past years. The results will help you decide how hot, cold, wet, or windy it might be!

Date:

Astronomy

Oct. 03, 2011 Rise Set
Actual Time 7:14 AM EDT 6:54 PM EDT
Civil Twilight 6:46 AM EDT 7:22 PM EDT
Nautical Twilight 6:14 AM EDT 7:53 PM EDT
Astronomical Twilight 5:42 AM EDT 8:26 PM EDT
Moon 2:13 PM EDT (10/3) 11:52 PM EDT (10/3)
Length of Visible Light 12h 35m
Length of Day
11h 40m
Waxing Crescent, 45% of the Moon is Illuminated
Oct 3
Waxing Crescent
Oct 3
First Quarter
Oct 11
Full
Oct 19
Last Quarter
Oct 26
New

Hourly Weather History & Observations

Time (EDT) Temp. Windchill Dew Point Humidity Pressure Visibility Wind Dir Wind Speed Gust Speed Precip Events Conditions
12:44 AM 41.0 °F 39.0 °F 39.2 °F 93% 29.90 in 10.0 mi West 3.5 mph - 0.03 in Rain Light Rain
12:56 AM 41.0 °F 39.0 °F 39.9 °F 96% 29.93 in 9.0 mi West 3.5 mph - 0.03 in   Overcast
1:04 AM 41.0 °F 39.0 °F 39.2 °F 93% 29.89 in 1.5 mi West 3.5 mph - N/A   Overcast
1:17 AM 41.0 °F 39.0 °F 39.2 °F 93% 29.90 in 3.0 mi WNW 3.5 mph - N/A   Overcast
1:56 AM 42.1 °F 39.2 °F 41.0 °F 96% 29.93 in 3.0 mi NW 4.6 mph - N/A   Overcast
2:08 AM 42.8 °F - 42.8 °F 100% 29.90 in 3.0 mi Calm Calm - N/A   Overcast
2:56 AM 43.0 °F 41.3 °F 43.0 °F 100% 29.92 in 4.0 mi WNW 3.5 mph - N/A   Overcast
3:56 AM 44.1 °F 42.5 °F 43.0 °F 96% 29.92 in 10.0 mi NW 3.5 mph - 0.01 in   Overcast
4:56 AM 45.0 °F 43.5 °F 44.1 °F 97% 29.94 in 9.0 mi WNW 3.5 mph - N/A   Overcast
5:06 AM 44.6 °F 42.2 °F 44.6 °F 100% 29.91 in 10.0 mi NW 4.6 mph - N/A   Overcast
5:56 AM 46.0 °F 41.9 °F 44.1 °F 93% 29.94 in 6.0 mi North 8.1 mph - 0.00 in   Overcast
6:16 AM 46.4 °F 43.5 °F 44.6 °F 93% 29.92 in 10.0 mi NNW 5.8 mph - N/A   Overcast
6:56 AM 46.0 °F 43.1 °F 45.0 °F 96% 29.96 in 7.0 mi North 5.8 mph - N/A   Overcast
7:56 AM 46.0 °F - 45.0 °F 96% 29.97 in 1.5 mi Calm Calm - 0.01 in Rain Light Rain
8:18 AM 46.4 °F - 44.6 °F 93% 29.95 in 2.5 mi Calm Calm - 0.01 in Rain Light Rain
8:28 AM 46.4 °F - 44.6 °F 93% 29.96 in 4.0 mi Calm Calm - 0.01 in   Overcast
8:56 AM 46.9 °F - 45.0 °F 93% 29.99 in 4.0 mi Calm Calm - 0.01 in   Overcast
9:07 AM 46.4 °F 45.2 °F 44.6 °F 93% 29.97 in 4.0 mi West 3.5 mph - N/A   Overcast
9:20 AM 46.4 °F - 46.4 °F 100% 29.98 in 1.8 mi Calm Calm - 0.01 in Rain Light Rain
9:41 AM 46.4 °F - 46.4 °F 100% 29.98 in 3.0 mi Calm Calm - 0.04 in Rain Light Rain
9:56 AM 48.0 °F - 46.0 °F 93% 30.01 in 10.0 mi NNW 4.6 mph - 0.04 in   Overcast
10:32 AM 50.0 °F - 48.2 °F 94% 29.98 in 10.0 mi WNW 5.8 mph - 0.01 in Rain Light Rain
10:47 AM 50.0 °F - 46.4 °F 87% 29.98 in 10.0 mi NNE 4.6 mph - 0.01 in   Mostly Cloudy
10:56 AM 50.0 °F - 44.6 °F 82% 29.98 in 10.0 mi Calm Calm - N/A   Overcast
11:56 AM 52.0 °F - 44.1 °F 74% 29.99 in 10.0 mi WSW 3.5 mph - N/A   Overcast
12:56 PM 53.6 °F - 46.4 °F 77% 29.99 in 10.0 mi Variable 4.6 mph - N/A   Overcast
1:56 PM 54.0 °F - 44.1 °F 69% 30.00 in 10.0 mi North 3.5 mph - N/A   Overcast
2:56 PM 55.0 °F - 45.0 °F 69% 29.99 in 10.0 mi NNE 3.5 mph - N/A   Overcast
3:56 PM 55.9 °F - 44.1 °F 64% 30.00 in 10.0 mi Variable 3.5 mph - N/A   Overcast
4:56 PM 54.0 °F - 46.0 °F 75% 30.01 in 10.0 mi NE 3.5 mph - 0.01 in Rain Light Rain
5:56 PM 53.1 °F - 46.0 °F 77% 30.04 in 10.0 mi North 8.1 mph - 0.00 in   Overcast
6:56 PM 48.9 °F - 44.1 °F 83% 30.06 in 10.0 mi NE 5.8 mph - 0.00 in   Mostly Cloudy
7:56 PM 48.0 °F - 45.0 °F 89% 30.07 in 10.0 mi Calm Calm - N/A   Partly Cloudy
8:56 PM 44.1 °F 42.5 °F 43.0 °F 96% 30.09 in 3.0 mi West 3.5 mph - N/A   Mostly Cloudy
9:56 PM 48.0 °F - 45.0 °F 89% 30.09 in 10.0 mi Calm Calm - N/A   Overcast
10:56 PM 48.2 °F - 44.6 °F 87% 30.09 in 10.0 mi NW 4.6 mph - N/A   Overcast
11:56 PM 46.9 °F - 44.1 °F 90% 30.10 in 10.0 mi NW 4.6 mph - N/A   Mostly Cloudy